FENGYUN 1C DEB, 37418

Orbit data source: Space-Track

FENGYUN 1C DEB, 37418 is space debris in LEO originally from a launch on Mon, 10 May 1999 UTC launched from the Taiyaun Space Center, China (TSC). Fengyun 1C debris stems from the Chinese weather satellite Fengyun-1C, which was intentionally destroyed by a Chinese anti-satellite missile in 2007. This event dramatically increased the amount of space debris, with thousands of trackable fragments posing hazards to satellites and human spaceflight. The Fengyun 1C debris cloud has become a focal point in discussions about space sustainability and the need for international regulations to prevent the creation of new debris.

Loading next visibility...
Identifier
37418, 1999-025EGL
Orbit
LEO
Country
Flag of CNCN / PRC
Related business
Manufacturer
Unknown
Mission
Spacecraft
Bus & Motor
Unknown
Mass
Unknown
Launch date (UTC)
1999-05-10 (27 years ago)
Launch vehicle
Unknown
Launch site
Taiyaun Space Center, China (TSC)
Object type
Payload
Rocket body
Debris
Shape & HBR
Unknown shape, 0.1 m
Radar Cross Section
Small (<0.1 m²)

Expand to show TLE details & history
Last TLE update: 6 days ago

TLE from 6 days ago
0 FENGYUN 1C DEB
1 37418U 99025EGL 26066.08447858  .00000454  00000-0  11685-2 0  9998
2 37418  98.6155 295.1503 1068728 153.0474 213.0459 11.95167557504921
Epoch: 2026-03-07T02:01Z
TLE epoch observation values (Epoch: 2026-03-07T02:01:38.949Z)
Latitude
0.00002°
Longitude
99.92681°
Altitude
2,453.372 km
Speed
6.401 km/s
True Right ascension
19h 40m 36s
True Declination
0° 00' 00"
Sunlit
Object was in daylight at epoch
Visualization orbit readout
Latitude
Unknown
Longitude
Unknown
Altitude
Unknown
Speed
Unknown
Apparent Right ascension
Unknown
Apparent Declination
Unknown
Sunlit
N/A
Visualization observer readout
Local Sidereal Time
18:05:15
Azimuth
Unknown
Elevation
Unknown
Doppler factor
Unknown
Orbital elements
Apogee altitude
2,563.321 km
Perigee altitude
836.657 km
Semi-major axis
8,078.126 km
Eccentricity
0.10687
Inclination
98.6155°
RAAN
295.1503°
Arg. of periapsis
153.0474°
True anomaly
207.05321°
Mean anomaly
213.0459°
Eccentric anomaly
209.98556°
Mean motion
2.98935 °/min
Orbital period
120.43 mins
BSTAR
0.0011685
Loading maneuver chart data...
Computing Atmospheric mass density...

Documentation

Showing up to 5 results
|